STARLINK-1884 (47167 NORAD) Tracking and Keplerian Element Data

This shows tracking and keplerian element data for the satellite.

Feedback or suggestion? Click here.




ElementValue
Catalog47167
NameSTARLINK-1884
Epoch Orbit1574
Epoch Day60.91667824
Epoch Year2021
RAAN253.742
Inclination53.0556
Eccentricity0.0008364
Argument of Perigee339.0178
Mean Anonmoly186.8715
Mean Motion15.06376557
Decay Rate0.0002566
L11 47167U 20088AX 21060.91667824 .00025660 00000-0 17353-2 0 9995
L22 47167 53.0556 253.7420 0008364 339.0178 186.8715 15.06376557 15744

Live tracking and technical data element details for STARLINK-1884 (NORAD 47167). STARLINK-1884 can be tracked NOW for your location showing map with azimuth and elevation plus other details from your city location.

Track the satellite on the map from your city or location and see movement details for azimuth, elevation, latitude, longitude, range, height, and movement on the map or in text.







IsCatalogInMostPopularTable: catalog: 47167, numindb: 43
Update: records affected: 1



GetName: 47167 STARLINK-1884

Hit Count: updated at: Tue, 02 Mar 2021 13:07:12 GMT